Location: Belfast
(54.5830°N, 5.9330°W)
Time: 03:15:21
(UTC+00:00)

ISS - Pass Details

Date: 03 February 2021
Orbit: 417 x 422 km, 51.6° (Epoch: 26 February)

Event Time Altitude Azimuth Distance (km) Brightness Sun altitude
Rises 17:49:11 0° 275° (W) 2,377 1.5 -6.4°
Reaches altitude 10° 17:51:23 10° 266° (W) 1,511 0.6 -6.7°
Maximum altitude 17:54:29 34° 200° (SSW) 722 -2.1 -7.2°
Drops below altitude 10° 17:57:36 10° 133° (SE) 1,509 -1.2 -7.6°
Sets 17:59:48 0° 124° (SE) 2,372 -0.3 -7.9°
